Flag for Switzerland Weather past 2 weeks in Liestal, Basel-Land, Switzerland

Now
66 °F

Light rain. Low clouds.


Feels Like: 66 °F
Forecast: 62 / 79 °F
Wind: 5 mph from West

Location: Bale-Mulhouse

Current Time: Jul 22, 2014 at 1:54:16 PM

Latest Report: Jul 22, 2014 at 1:30 PM


Visibility: N/A

Pressure: 29.98 "Hg

Humidity: 94%

Dew point: 64 °F

Location of LiestalLocation

Historic Weather in Liestal — Graph

°F

Liestal temperature yesterday

Maximum temperature yesterday: 72 °F (at 5:00 PM)
Minimum temperature yesterday: 63 °F (at 12:00 AM)
Average temperature yesterday: 65 °F

Past Weeks' High & Low Weather Summary

 TemperatureHumidityPressure
High93 °F (Jul 18, 4:35 PM)100% (Jul 11, 4:30 AM)30.18 "Hg (Jul 11, 4:30 AM)
Low54 °F (Jul 9, 8:00 PM)20% (Jul 18, 5:00 PM)29.80 "Hg (Jul 10, 3:30 AM)
Average66 °F79%29.98 "Hg
* Reported Jul 7 12:00 Noon — Jul 22 12:30 PM, Liestal, Weather by CustomWeather, © 2014

Note: Actual official high and low records may vary slightly from our data, if they occured in-between our weather recording intervals... More about our weather records

Advertising

Liestal weather history for previous 24 hours

 ConditionsComfort  
Time TempWeatherWind HumidityBarometerVisibility
12:30 PM
Jul 22
66 °FMostly cloudy.8 mph88%29.98 "Hg6 mi
12:00 PM64 °FLight rain. Partly sunny.7 mph94%29.95 "Hg6 mi
11:30 AM64 °FLight rain. Partly sunny.8 mph94%29.95 "Hg4 mi
11:00 AM64 °FLight rain. Fog.9 mph94%29.95 "Hg3 mi
10:30 AM64 °FLight rain. Fog.8 mph94%29.95 "Hg2 mi
10:00 AM63 °FRain. Fog.6 mph100%29.95 "Hg2 mi
9:30 AM63 °FRain. Partly sunny.7 mph94%29.95 "Hg6 mi
9:00 AM63 °FLight rain. Partly sunny.8 mph94%29.95 "Hg6 mi
8:30 AM63 °FLight rain. Partly sunny.8 mph94%29.95 "Hg4 mi
8:00 AM63 °FRain. Partly sunny.6 mph94%29.95 "Hg4 mi
7:30 AM64 °FLight rain. Partly sunny.6 mph94%29.95 "Hg4 mi
7:00 AM64 °FLight rain. Partly sunny.6 mph94%29.95 "HgN/A
6:30 AM64 °FPartly cloudy.2 mph94%29.95 "HgN/A
6:00 AM64 °FMostly cloudy.5 mph94%29.95 "HgN/A
5:30 AM64 °FPassing clouds.5 mph94%29.95 "HgN/A
5:00 AM64 °FPartly cloudy.3 mph94%29.95 "HgN/A
4:30 AM64 °FPassing clouds.6 mph94%29.92 "HgN/A
4:00 AM64 °FOvercast.6 mph94%29.92 "HgN/A
3:30 AM64 °FMostly cloudy.7 mph94%29.92 "HgN/A
3:00 AM64 °FMostly cloudy.7 mph94%29.95 "Hg5 mi
2:30 AM64 °FLight rain. Passing clouds.7 mph94%29.95 "Hg4 mi
2:00 AM64 °FLight rain. Overcast.9 mph94%29.95 "Hg5 mi
1:30 AM64 °FLight rain. Mostly cloudy.7 mph94%29.95 "HgN/A
1:00 AM64 °FMostly cloudy.8 mph94%29.95 "HgN/A
12:30 AM64 °FLight rain. Partly cloudy.8 mph94%29.95 "Hg6 mi
12:00 AM64 °FLight rain. Partly cloudy.7 mph94%29.95 "Hg6 mi
11:30 PM
Jul 21
64 °FLight rain. Partly cloudy.5 mph94%29.95 "HgN/A
11:00 PM64 °FLight rain. Passing clouds.3 mph94%29.95 "HgN/A
10:00 PM64 °FOvercast.3 mph94%29.95 "HgN/A
9:30 PM64 °FBroken clouds.2 mph94%29.95 "HgN/A
9:00 PM64 °FRain showers. Mostly cloudy.3 mph94%29.95 "Hg4 mi
8:30 PM64 °FRain showers. Partly sunny.7 mph94%29.95 "Hg4 mi
8:00 PM64 °FRain showers. Broken clouds.6 mph94%29.95 "Hg5 mi
7:30 PM66 °FRain showers. More clouds than sun.8 mph88%29.95 "Hg2 mi
7:00 PM68 °FSprinkles. Broken clouds.10 mph78%29.95 "HgN/A
6:30 PM70 °FBroken clouds.9 mph78%29.92 "HgN/A
6:00 PM70 °FPartly sunny.8 mph78%29.95 "HgN/A
5:30 PM70 °FPartly sunny.9 mph73%29.95 "HgN/A
5:00 PM72 °FPartly sunny.8 mph73%29.95 "HgN/A
4:30 PM70 °FPartly sunny.9 mph78%29.95 "HgN/A
4:00 PM70 °FBroken clouds.9 mph78%29.95 "HgN/A
3:30 PM70 °FBroken clouds.9 mph73%29.95 "HgN/A
3:00 PM70 °FBroken clouds.8 mph73%29.95 "HgN/A
2:30 PM70 °FPartly sunny.8 mph73%29.95 "HgN/A
2:00 PM68 °FPartly sunny.9 mph78%29.95 "HgN/A
1:30 PM68 °FScattered showers. Partly sunny.9 mph78%29.95 "HgN/A
1:00 PM66 °FScattered showers. Partly sunny.10 mph78%29.95 "HgN/A
Weather by CustomWeather, © 2014

See weather overviewHow to use our weather pages